Погода в Бигиле

Россия / Тюменская область     56°24′12″N   66°39′21″E
темп.,
°C
ветер,
м/с
пор.,
м/с
влажн.,
%
обл.,
%
осадки,
мм/ч
давл.,
гПа
погр.,
м
18 января, пн
пн1823:00−11зюз71389100 0.7 1004687
02:00−15з61292100 0.0 1007391
05:00−18з5109593 0.1 1010242
08:00−20з479880 0.0 1012153
11:00−20з479776 0.0 1015187
14:00−19зюз479545 0.0 1017237
17:00−21зюз369623 0.0 101988
20:00−22зюз47950 0.0 1019120
19 января, вт
вт1923:00−22зюз47940 0.0 1020115
02:00−22зюз35940 0.0 102086
05:00−23зюз34930 0.0 102151
08:00−23зюз339382 0.0 102236
11:00−21з119191 0.0 102325
14:00−19юз1190100 0.0 102350
17:00−21юв1189100 0.0 102320
20:00−20вюв339081 0.0 102376
20 января, ср
ср2023:00−20вюв479090 0.0 1023166
02:00−19вюв5989100 0.0 1022238
05:00−19вюв61190100 0.0 1021258
08:00−18вюв61289100 0.0 1019325
11:00−17вюв71485100 0.0 1017386
14:00−16вюв71388100 0.1 1014580
17:00−16юв51095100 1.9 1012704
20:00−16ююв499598 0.4 1011301
21 января, чт
чт2123:00−18ююз379798 0.5 1011159
02:00−20юз499990 0.0 1011188
05:00−19юз5109594 0.1 1010293
08:00−19юз6119599 0.1 1009399
11:00−18юз61095100 0.4 1009573
14:00−18зюз61094100 0.3 1008698
17:00−18зюз51195100 0.5 1009601
20:00−19з51196100 0.1 1010383
22 января, пт
пт2223:00−22з4899100 0.1 1010176
02:00−22зюз4810091 0.1 1011190
05:00−21зюз479895 0.1 1012248
08:00−21зюз3699100 0.1 1012159
11:00−19юз359899 0.3 1011239
14:00−18ю2396100 0.1 1010233
17:00−18вюв2398100 0.5 100986
20:00−19всв2398100 0.4 100975